Location: Agadir-Ikarkaouin
(31.1503°N, 9.0246°W)
Time: 03:14:48
(UTC+00:00)

Cosmos 1975 Rocket - Pass Details

Date: 18 September 2020
Orbit: 603 x 634 km, 82.5° (Epoch: 23 October)

Event Time Altitude Azimuth Distance (km) Brightness Sun altitude
Rises 19:09:46 0° 8° (N) 2,863 6.5 -7.7°
Reaches altitude 10° 19:12:16 10° 20° (NNE) 1,953 5.5 -8.3°
Maximum altitude 19:15:57 27° 79° (E) 1,160 3.9 -9.1°
Drops below altitude 10° 19:19:37 10° 138° (SE) 1,940 5.2 -9.8°
Enters shadow 19:21:54 - 150° (SSE) 2,769 6.0 -10.3°
